• en France
  • Liste des pays
  • À 7 jours
  • Température de l'eau
  • Carte satellitaire
  • Carte météo
  • Widgets météo
  • user-avatar
    Se connecter

    Météo par heure à Fier

    Ce jour, 18 Septembre, Mardi

    Heure Température Précipitation Vent Pression Humidité
    00:00 +24°C° 0 mm 2 m/s 763 mmHg 50%
    01:00 +24°C° 0 mm 2 m/s 763 mmHg 51%
    02:00 +24°C° 0 mm 1 m/s 763 mmHg 53%
    03:00 +24°C° 0 mm 1 m/s 763 mmHg 54%
    04:00 +23°C° 0 mm 1 m/s 763 mmHg 56%
    05:00 +24°C° 0 mm 1 m/s 763 mmHg 56%
    06:00 +25°C° 0 mm 1 m/s 763 mmHg 55%
    07:00 +26°C° 0 mm 2 m/s 764 mmHg 53%
    08:00 +28°C° 0 mm 1 m/s 763 mmHg 47%
    09:00 +30°C° 0 mm 1 m/s 763 mmHg 42%
    10:00 +32°C° 0 mm 1 m/s 763 mmHg 36%
    11:00 +33°C° 0 mm 1 m/s 763 mmHg 34%
    12:00 +34°C° 0 mm 2 m/s 763 mmHg 31%
    13:00 +34°C° 0 mm 3 m/s 763 mmHg 30%
    14:00 +34°C° 0 mm 3 m/s 763 mmHg 32%
    15:00 +33°C° 0 mm 3 m/s 762 mmHg 34%
    16:00 +33°C° 0 mm 3 m/s 762 mmHg 35%
    17:00 +30°C° 0 mm 3 m/s 762 mmHg 41%
    18:00 +27°C° 0 mm 2 m/s 762 mmHg 47%
    19:00 +25°C° 0 mm 1 m/s 763 mmHg 53%
    20:00 +25°C° 0 mm 1 m/s 763 mmHg 53%
    21:00 +25°C° 0 mm 1 m/s 763 mmHg 54%
    22:00 +24°C° 0 mm 1 m/s 763 mmHg 54%
    23:00 +24°C° 0 mm 1 m/s 763 mmHg 54%

    Demain, 19 Septembre, Mercredi

    Heure Température Précipitation Vent Pression Humidité
    00:00 +24°C° 0 mm 1 m/s 763 mmHg 55%
    01:00 +24°C° 0 mm 1 m/s 763 mmHg 55%
    02:00 +23°C° 0 mm 1 m/s 763 mmHg 56%
    03:00 +23°C° 0 mm 1 m/s 763 mmHg 58%
    04:00 +23°C° 0 mm 2 m/s 763 mmHg 59%
    05:00 +24°C° 0 mm 2 m/s 763 mmHg 58%
    06:00 +25°C° 0 mm 2 m/s 763 mmHg 56%
    07:00 +25°C° 0 mm 2 m/s 763 mmHg 55%
    08:00 +28°C° 0 mm 1 m/s 763 mmHg 49%
    09:00 +30°C° 0 mm 1 m/s 763 mmHg 43%
    10:00 +32°C° 0 mm 1 m/s 763 mmHg 37%
    11:00 +33°C° 0 mm 1 m/s 763 mmHg 35%
    12:00 +34°C° 0 mm 2 m/s 762 mmHg 33%
    13:00 +35°C° 0 mm 3 m/s 762 mmHg 32%
    14:00 +34°C° 0 mm 3 m/s 762 mmHg 33%
    15:00 +33°C° 0 mm 3 m/s 762 mmHg 35%
    16:00 +33°C° 0 mm 3 m/s 761 mmHg 37%
    17:00 +30°C° 0 mm 2 m/s 761 mmHg 42%
    18:00 +27°C° 0 mm 2 m/s 762 mmHg 48%
    19:00 +25°C° 0 mm 1 m/s 762 mmHg 53%
    20:00 +25°C° 0 mm 1 m/s 762 mmHg 53%
    21:00 +25°C° 0 mm 1 m/s 762 mmHg 54%
    22:00 +25°C° 0 mm 1 m/s 763 mmHg 54%
    23:00 +24°C° 0 mm 1 m/s 763 mmHg 54%

    Après-demain, 20 Septembre, Jeudi

    Heure Température Précipitation Vent Pression Humidité
    00:00 +24°C° 0 mm 1 m/s 762 mmHg 54%
    01:00 +24°C° 0 mm 1 m/s 762 mmHg 55%
    02:00 +24°C° 0 mm 1 m/s 762 mmHg 56%
    03:00 +23°C° 0 mm 1 m/s 762 mmHg 56%
    04:00 +23°C° 0 mm 1 m/s 762 mmHg 57%
    05:00 +24°C° 0 mm 1 m/s 762 mmHg 56%
    06:00 +25°C° 0 mm 1 m/s 762 mmHg 54%
    07:00 +26°C° 0 mm 2 m/s 762 mmHg 53%
    08:00 +28°C° 0 mm 1 m/s 762 mmHg 47%
    09:00 +30°C° 0 mm 1 m/s 762 mmHg 40%
    10:00 +32°C° 0 mm 1 m/s 762 mmHg 34%
    11:00 +33°C° 0 mm 1 m/s 762 mmHg 32%
    12:00 +34°C° 0 mm 2 m/s 761 mmHg 31%
    13:00 +35°C° 0 mm 3 m/s 761 mmHg 29%
    14:00 +34°C° 0 mm 3 m/s 761 mmHg 32%
    15:00 +33°C° 0 mm 3 m/s 760 mmHg 35%
    16:00 +31°C° 0 mm 3 m/s 760 mmHg 38%
    17:00 +29°C° 0 mm 2 m/s 760 mmHg 45%
    18:00 +27°C° 0 mm 2 m/s 761 mmHg 51%
    19:00 +25°C° 0 mm 1 m/s 761 mmHg 57%
    20:00 +25°C° 0 mm 1 m/s 761 mmHg 57%
    21:00 +25°C° 0 mm 1 m/s 761 mmHg 57%
    22:00 +24°C° 0 mm 1 m/s 761 mmHg 57%
    23:00 +24°C° 0 mm 1 m/s 761 mmHg 56%

    21 Septembre, Vendredi

    Heure Température Précipitation Vent Pression Humidité
    00:00 +24°C° 0 mm 1 m/s 761 mmHg 56%
    01:00 +24°C° 0 mm 1 m/s 761 mmHg 55%
    02:00 +23°C° 0 mm 1 m/s 761 mmHg 55%
    03:00 +23°C° 0 mm 1 m/s 761 mmHg 55%
    04:00 +23°C° 0 mm 1 m/s 761 mmHg 55%
    05:00 +24°C° 0 mm 1 m/s 761 mmHg 53%
    06:00 +25°C° 0 mm 1 m/s 761 mmHg 52%
    07:00 +25°C° 0 mm 1 m/s 761 mmHg 50%
    08:00 +28°C° 0 mm 1 m/s 761 mmHg 45%
    09:00 +30°C° 0 mm 1 m/s 761 mmHg 40%
    10:00 +32°C° 0 mm 1 m/s 762 mmHg 35%
    11:00 +32°C° 0 mm 2 m/s 761 mmHg 34%
    12:00 +34°C° 0 mm 2 m/s 761 mmHg 33%
    13:00 +34°C° 0 mm 3 m/s 761 mmHg 32%
    14:00 +34°C° 0 mm 3 m/s 760 mmHg 35%
    15:00 +33°C° 0 mm 3 m/s 760 mmHg 39%
    16:00 +31°C° 0 mm 3 m/s 760 mmHg 42%
    17:00 +29°C° 0 mm 2 m/s 760 mmHg 51%
    18:00 +27°C° 0 mm 2 m/s 760 mmHg 59%
    19:00 +25°C° 0 mm 1 m/s 761 mmHg 68%
    20:00 +25°C° 0 mm 1 m/s 761 mmHg 69%
    21:00 +24°C° 0 mm 1 m/s 761 mmHg 71%
    22:00 +24°C° 0 mm 1 m/s 762 mmHg 72%
    23:00 +24°C° 0 mm 1 m/s 761 mmHg 73%

    22 Septembre, Samedi

    Heure Température Précipitation Vent Pression Humidité
    00:00 +23°C° 0 mm 1 m/s 761 mmHg 73%
    01:00 +23°C° 0 mm 1 m/s 761 mmHg 73%
    02:00 +23°C° 0 mm 1 m/s 761 mmHg 73%
    03:00 +23°C° 0 mm 1 m/s 761 mmHg 73%
    04:00 +22°C° 0 mm 1 m/s 761 mmHg 73%
    05:00 +23°C° 0 mm 1 m/s 761 mmHg 69%
    06:00 +24°C° 0 mm 1 m/s 761 mmHg 65%
    07:00 +25°C° 0 mm 2 m/s 761 mmHg 61%
    08:00 +27°C° 0 mm 2 m/s 761 mmHg 54%
    09:00 +29°C° 0 mm 2 m/s 761 mmHg 47%
    10:00 +31°C° 0 mm 2 m/s 761 mmHg 40%
    11:00 +31°C° 0 mm 2 m/s 761 mmHg 38%
    12:00 +33°C° 0 mm 3 m/s 761 mmHg 37%
    13:00 +33°C° 0 mm 4 m/s 760 mmHg 36%
    14:00 +33°C° 0 mm 3 m/s 760 mmHg 39%
    15:00 +31°C° 0 mm 3 m/s 760 mmHg 42%
    16:00 +31°C° 0 mm 3 m/s 760 mmHg 45%
    17:00 +29°C° 0 mm 3 m/s 760 mmHg 53%
    18:00 +27°C° 0 mm 2 m/s 761 mmHg 61%
    19:00 +25°C° 0 mm 1 m/s 761 mmHg 69%
    20:00 +24°C° 0 mm 1 m/s 761 mmHg 71%
    21:00 +24°C° 0 mm 1 m/s 762 mmHg 73%
    22:00 +23°C° 0 mm 1 m/s 762 mmHg 74%
    23:00 +23°C° 0 mm 1 m/s 762 mmHg 75%

    23 Septembre, Dimanche

    Heure Température Précipitation Vent Pression Humidité
    00:00 +23°C° 0 mm 1 m/s 762 mmHg 75%
    01:00 +23°C° 0 mm 1 m/s 761 mmHg 75%
    02:00 +22°C° 0 mm 1 m/s 762 mmHg 75%
    03:00 +22°C° 0 mm 1 m/s 762 mmHg 74%
    04:00 +22°C° 0 mm 1 m/s 762 mmHg 74%
    05:00 +23°C° 0 mm 1 m/s 762 mmHg 69%
    06:00 +24°C° 0 mm 2 m/s 762 mmHg 65%
    07:00 +25°C° 0 mm 2 m/s 762 mmHg 60%
    08:00 +27°C° 0 mm 1 m/s 762 mmHg 53%
    09:00 +29°C° 0 mm 1 m/s 762 mmHg 45%
    10:00 +31°C° 0 mm 1 m/s 762 mmHg 38%
    11:00 +32°C° 0 mm 2 m/s 762 mmHg 37%
    12:00 +34°C° 0 mm 2 m/s 762 mmHg 36%
    13:00 +34°C° 0 mm 3 m/s 761 mmHg 35%
    14:00 +34°C° 0 mm 3 m/s 761 mmHg 37%
    15:00 +33°C° 0 mm 3 m/s 761 mmHg 40%
    16:00 +31°C° 0 mm 3 m/s 761 mmHg 43%
    17:00 +29°C° 0 mm 2 m/s 761 mmHg 51%
    18:00 +27°C° 0 mm 2 m/s 761 mmHg 59%
    19:00 +25°C° 0 mm 1 m/s 761 mmHg 67%
    20:00 +25°C° 0 mm 1 m/s 761 mmHg 68%
    21:00 +25°C° 0 mm 1 m/s 761 mmHg 69%
    22:00 +24°C° 0 mm 1 m/s 761 mmHg 70%
    23:00 +24°C° 0 mm 2 m/s 761 mmHg 70%
    Voir plus